If you wish to contribute or participate in the discussions about articles you are invited to join SKYbrary as a registered user

 Actions

Watson Lake Airport

From SKYbrary Wiki

CYQH
Airport
ICAO: CYQH
Summary
Name Watson Lake Airport
Region North America
Territory Canada CA.gif
Location Watson Lake, Yukon
Serving
Coordinates 60° 6' 48.46" N, 128° 48' 57.85" W
Runways
Designator Length Width Surface ROPS
8/26 1676 m5,498.688 ft
46 m150.919 ft
ASP /


METAR
Observation CYQH 270800Z 04003KT 30SM SCT060 02/02 A2992 RMK SC3 SLP160
Station Watson Lake, Y. T.
Date/Time 27 September 2020 08:00:00
Wind direction 40°
Wind speed 03 kts
Lowest cloud amount scattered clouds
Temperature 2°C
Dew point 2°C
Humidity 100%
QNH hPa
Weather condition n/a

BS
Tag(s) Bird Strike
Non Avian Wildlife Hazards to Aircraft
CFIT
Tag(s) Altimeter Temperature Error Correction
GND
Tag(s) Aircraft Ground De/Anti Icing
RE
Tag(s) Landing on Contaminated Runways
WX
Tag(s) Mountain Waves
Low Level Turbulence

Watson Lake Airport

ICAO: CYQH IATA: YQH

Description

Regional airport serving the town of Watson Lake, Yukon, Canada.

Climatology

Subarctic climate (Köppen climate classification Dfc) - long, usually very cold winters, and short, cool to mild summers.

Maps

Terrain

Loading map...

Airport Layout

Loading map...


Accidents & Serious Incidents at or in vicinity of CYQH

None on SKYbrary